星链-1661 (STARLINK-1661 )

导读 | 豆包AI

STARLINK-1661是美国太空探索技术公司SpaceX星链星座的卫星成员,于2020年9月3日发射入轨。星链是全球低轨卫星互联网星座,该卫星承担为全球偏远、网络欠发达地区提供高速宽带网络服务的任务,依托低轨部署,能降低信号延迟,提升网络接入服务覆盖范围与使用体验。

基本信息
目录编号:
46355
目录名称:
STARLINK-1661
国际标识:
2020-062AG
轨道中心:
EARTH
卫星名称:
星链-1661
卫星全名:
星链-1661 (STARLINK-1661 )
卫星状态:
在轨 (已飞行2039 天)
发射日期:
2020-09-03 UTC
国别 :
美国 (US)
星等 :
--
轨道信息
数据来源 国际轨道数据
星历时间: 2026-04-04T01:43:01+0800
11小时前
查看轨道信息
半长轴: 6848.173km
偏心率: 0.0001334
轨道倾角: 53.157°
近地点辐角 348.536°
升交点赤经 254.555°
平近点角 11.561°
近地点: 469.122km
远地点: 470.95km
周期: 93.999分钟
每日圈数: 15.319364
详细信息
固有亮度:
5
最大亮度:
2.5
卫星平台:
Starlink V1.0
覆盖范围:
全球
运营商:
太空探索技术公司
运营商所在国:
美国
制造商(研发单位):
太空探索技术公司
制造商所在国:
美国
使用方式:
暂无
卫星简介
星链(Starlink)计划是由太空探索技术公司(SpaceX)提出的一个巨型低轨卫星互联网星座项目,计划在2019年至2024年间在太空搭建由约1.2万颗卫星组成的“星链”网络,其中1584颗将部署在地球上空550千米处的近地轨道,并从2020年开始工作。该卫星仍在工作。
2D轨道图
3D轨道图
轨道高度分析图
轨道倾角分析图
轨道综合分析图
查看轨道综合分析图